Погода в Дера-Исмаил-Хане

Пакистан     31°49′15″N   70°54′40″E
темп.,
°C
ветер,
м/с
пор.,
м/с
влажн.,
%
обл.,
%
осадки,
мм/ч
давл.,
гПа
погр.,
м
13 мая, чт
чт1323:00+30с583823 0.4 997261
02:00+28всв813445 0.0 998500
05:00+27св58492 0.0 999404
08:00+29св55450 0.1 1001738
11:00+34св54300 0.1 10011565
14:00+37св43250 0.0 10002637
17:00+38всв43200 0.0 9972788
20:00+34вюв6729100 0.0 999742
14 мая, пт
пт1423:00+28вюв611400 0.3 1002594
02:00+27всв36485 0.0 1002413
05:00+26ссв334971 0.0 1002230
08:00+28св33390 0.1 1004548
11:00+34всв44270 0.1 10031611
14:00+37в64220 0.0 10002234
17:00+36юз7621100 0.0 9981141
20:00+32сз452377 0.2 1000198
15 мая, сб
сб1523:00+31ссв3532100 0.8 1000144
02:00+30ю01345 0.0 100128
05:00+28вюв34365 0.0 100281
08:00+32всв45280 0.2 1004755
11:00+35в44230 0.3 10041421
14:00+39вюв4416100 0.0 10013063
17:00+34з9920100 0.1 1000541
20:00+27св9105220 0.3 1005518
16 мая, вс
вс1623:00+28ссв3444100 0.3 1007456
02:00+27с5646100 0.0 1004390
05:00+26з3548100 0.4 1006217
08:00+30ссв3437100 0.2 1007544
11:00+34ссв4326100 0.2 10071614
14:00+37зюз232197 0.0 10042432
17:00+38ссв321991 0.0 10022412
20:00+31сз9133177 0.3 1005550
17 мая, пн
пн1723:00+32ссз5828100 0.3 1005522
02:00+31ссв3528100 0.0 1004139
05:00+30зсз2229100 0.0 100431
08:00+34сз3323100 0.0 1006506
11:00+38ссз321798 0.0 10051643
14:00+40сз22140 0.0 10022875
17:00+41ююз11120 0.0 10003275
20:00+38юз22140 0.0 100115